DB0NH-2 Weather Reports


time (UTC)temp
C
wind
direction
speed
KPH
gust
KPH
rain 1hr
cm
rain 24hr
cm
rain mn
cm
humidity
%
barometer
mb
20260506102607 16 239 4.8 14.5 0.00 0.81 0.10 69 1006.5
20260506101607 15 272 1.6 6.4 0.00 0.81 0.10 74 1006.6
20260506100607 15 253 3.2 9.7 0.00 0.81 0.10 73 1006.7
20260506095607 16 235 6.4 17.7 0.00 0.81 0.10 72 1006.5
20260506094607 15 254 3.2 12.9 0.00 0.81 0.10 76 1006.6
20260506093607 15 258 4.8 14.5 0.00 0.81 0.10 75 1006.7
20260506092607 15 242 4.8 14.5 0.00 0.81 0.10 76 1006.6
20260506091607 15 246 3.2 16.1 0.00 0.81 0.10 76 1006.5
20260506090607 14 244 8.0 16.1 0.00 0.81 0.10 80 1006.6
20260506085607 13 249 8.0 16.1 0.00 0.81 0.10 82 1006.7
20260506084607 14 256 6.4 12.9 0.00 0.81 0.10 84 1006.6
20260506083607 13 255 3.2 9.7 0.00 0.81 0.10 84 1006.4
20260506082607 13 267 3.2 6.4 0.00 0.81 0.10 84 1006.2
20260506081607 13 260 1.6 11.3 0.00 0.81 0.10 87 1006.3
20260506080607 12 255 1.6 9.7 0.00 0.81 0.10 88 1006.2
20260506072607 12 304 1.6 6.4 0.00 0.81 0.10 91 1006.2
20260506071607 12 278 0.0 3.2 0.00 0.81 0.10 92 1006.1
20260506070607 12 290 1.6 3.2 0.00 0.81 0.10 91 1006.1
20260506061607 11 259 3.2 11.3 0.00 0.81 0.10 98 1006.1
20260506060607 11 251 1.6 6.4 0.00 0.81 0.10 99 1006.2
20260506050607 11 268 1.6 3.2 0.00 0.81 0.10 99 1006.3
20260506044607 10 280 1.6 3.2 0.00 0.81 0.10 99 1006.2
20260506043607 10 284 1.6 3.2 0.00 0.81 0.10 99 1006.3
20260506042607 10 280 1.6 3.2 0.00 0.81 0.10 99 1006.1
20260506041607 10 269 1.6 6.4 0.00 0.81 0.10 99 1006.1
20260506040607 10 271 1.6 3.2 0.00 0.81 0.10 99 1006.0
20260506035607 11 264 1.6 3.2 0.00 0.81 0.10 99 1005.8
20260506034607 11 253 3.2 9.7 0.00 0.81 0.10 99 1006.1
20260506033607 11 274 3.2 6.4 0.00 0.81 0.10 99 1005.9
20260506032607 11 277 1.6 4.8 0.00 0.81 0.10 99 1005.9
20260506031607 11 297 1.6 4.8 0.00 0.81 0.10 99 1006.0
20260506030607 11 273 1.6 4.8 0.00 0.81 0.10 99 1006.0
20260506025607 11 292 3.2 9.7 0.00 0.81 0.10 99 1006.0
20260506024607 11 301 1.6 4.8 0.00 0.81 0.10 99 1006.0
20260506023607 11 288 3.2 4.8 0.00 0.81 0.10 99 1006.1
20260506022607 11 273 3.2 9.7 0.00 0.81 0.10 99 1006.1
20260506021607 11 293 3.2 6.4 0.10 0.81 0.10 99 1006.2
20260506020607 11 278 3.2 12.9 0.10 0.81 0.10 99 1006.1
20260506015607 11 268 1.6 4.8 0.10 0.81 0.10 99 1006.2
20260506014607 11 266 1.6 4.8 0.10 0.81 0.10 99 1006.3
20260506013607 11 267 1.6 4.8 0.10 0.84 0.10 99 1006.4
20260506012607 11 285 1.6 11.3 0.10 0.94 0.10 99 1006.4
20260506011607 11 252 1.6 4.8 0.00 0.84 0.00 99 1006.4
20260506010607 11 253 1.6 4.8 0.00 0.84 0.00 99 1006.4
20260506005607 11 269 1.6 4.8 0.00 0.84 0.00 99 1006.4
20260506004607 11 250 1.6 6.4 0.00 0.86 0.00 99 1006.5
20260506003607 11 246 6.4 12.9 0.00 0.86 0.00 98 1006.5
20260506002607 11 234 8.0 12.9 0.00 0.86 0.00 98 1006.8
20260506001607 11 240 6.4 11.3 0.00 0.86 0.00 98 1006.9
20260506000607 11 228 4.8 9.7 0.00 0.86 0.00 98 1006.9
20260505235607 11 234 6.4 11.3 0.00 0.86 0.00 98 1007.0
20260505234607 11 239 4.8 9.7 0.00 0.86 0.00 98 1007.0
20260505233607 11 235 3.2 9.7 0.00 0.86 0.00 98 1007.1
20260505232607 11 247 1.6 3.2 0.00 0.86 0.00 98 1007.2
20260505231607 11 241 3.2 11.3 0.00 0.86 0.00 98 1007.0
20260505230607 11 240 3.2 9.7 0.00 0.86 0.00 98 1007.1
20260505225607 11 237 0.0 4.8 0.00 0.86 0.00 98 1007.1
20260505224607 11 274 0.0 1.6 0.00 0.86 0.00 98 1007.0
20260505223607 11 247 1.6 3.2 0.00 0.86 0.00 98 1007.0
20260505222607 11 245 1.6 4.8 0.00 0.86 0.00 98 1007.0
20260505221607 11 235 3.2 4.8 0.00 0.86 0.00 98 1007.1
20260505220607 11 0.0 0.0 0.00 0.86 0.00 98 1006.9
20260505215607 11 0.0 0.0 0.00 0.86 0.86 98 1007.0
20260505214607 11 0.0 0.0 0.00 0.86 0.86 98 1007.2
20260505213607 11 0.0 0.0 0.00 0.86 0.86 98 1007.1
20260505212607 11 0.0 0.0 0.00 0.86 0.86 98 1007.3
20260505211607 11 0.0 1.6 0.00 0.86 0.86 98 1007.4
20260505210607 11 288 0.0 1.6 0.00 0.86 0.86 98 1007.4
20260505205607 11 284 0.0 1.6 0.00 0.86 0.86 98 1007.3
20260505204607 11 341 0.0 4.8 0.00 0.86 0.86 98 1007.1
20260505203607 11 328 0.0 4.8 0.03 0.86 0.86 98 1006.9
20260505202607 11 349 1.6 3.2 0.05 0.86 0.86 97 1006.9
20260505201607 12 315 1.6 3.2 0.05 0.86 0.86 97 1007.0
20260505200607 12 308 0.0 3.2 0.05 0.86 0.86 97 1007.0
20260505195608 12 294 1.6 6.4 0.08 0.86 0.86 97 1007.0
20260505194608 11 291 0.0 6.4 0.08 0.86 0.86 97 1007.1
20260505193608 11 270 0.0 1.6 0.05 0.84 0.84 97 1007.1
20260505192608 11 275 0.0 1.6 0.03 0.81 0.81 97 1007.2
20260505191608 11 277 1.6 1.6 0.03 0.81 0.81 97 1007.0
20260505190608 11 0.0 3.2 0.05 0.81 0.81 97 1006.8
20260505185608 11 313 0.0 3.2 0.03 0.79 0.79 97 1006.8
20260505184608 11 287 0.0 4.8 0.03 0.79 0.79 97 1006.8
20260505183608 11 301 0.0 4.8 0.03 0.79 0.79 96 1006.9
20260505182608 11 250 0.0 4.8 0.03 0.79 0.79 96 1006.8
20260505181608 11 278 1.6 6.4 0.05 0.79 0.79 96 1006.7
20260505180608 11 285 1.6 4.8 0.08 0.76 0.76 96 1006.5
20260505175608 12 277 0.0 3.2 0.15 0.76 0.76 96 1006.6
20260505174608 12 271 0.0 1.6 0.25 0.76 0.76 96 1006.4
20260505173608 12 250 0.0 3.2 0.41 0.76 0.76 96 1006.3
20260505172608 12 309 0.0 1.6 0.51 0.76 0.76 96 1006.4
20260505171608 12 322 1.6 4.8 0.53 0.74 0.74 95 1006.6
20260505170608 12 301 1.6 6.4 0.51 0.69 0.69 95 1006.9
20260505165608 12 271 4.8 20.9 0.46 0.61 0.61 95 1007.2
20260505164608 12 280 4.8 22.5 0.36 0.51 0.51 94 1007.2
20260505163608 12 254 3.2 16.1 0.20 0.36 0.36 93 1007.2
20260505162608 13 288 3.2 9.7 0.10 0.25 0.25 91 1007.3
20260505161608 13 285 3.2 9.7 0.05 0.20 0.20 86 1006.8
20260505160608 14 36 0.0 6.4 0.03 0.18 0.18 80 1006.3
20260505152608 17 59 6.4 16.1 0.00 0.15 0.15 64 1005.8
20260505151608 18 51 4.8 6.4 0.00 0.15 0.15 60 1006.0
20260505150608 18 31 1.6 6.4 0.00 0.15 0.15 57 1006.0
20260505140608 20 44 8.0 17.7 0.00 0.15 0.15 54 1006.6
20260505124607 20 32 1.6 6.4 0.00 0.15 0.15 55 1007.5
20260505123608 20 39 3.2 6.4 0.00 0.15 0.15 54 1007.5
20260505122608 20 65 1.6 4.8 0.00 0.15 0.15 52 1007.6
20260505121607 20 34 1.6 4.8 0.00 0.15 0.15 51 1007.8
20260505120608 20 61 3.2 9.7 0.00 0.15 0.15 52 1007.8
20260505115608 20 107 3.2 12.9 0.00 0.15 0.15 52 1007.9
20260505114608 20 35 1.6 9.7 0.00 0.15 0.15 53 1008.0
20260505113608 20 49 4.8 11.3 0.00 0.15 0.15 55 1008.1
20260505112608 20 137 3.2 11.3 0.00 0.15 0.15 55 1008.1
20260505111608 20 45 1.6 11.3 0.00 0.15 0.15 54 1008.2
20260505110609 20 51 6.4 12.9 0.00 0.15 0.15 56 1008.3